Temp
66 66 65 65 65 65 65 64 63 63 63 64 64 64 64 64 64 64 64 64 65 65 65 64 65 65 61 60 63 74 77 77 75 74 69 65 60 56 51 55 57 53 57 63 64 64 65
66 65 65 65 65 65 65 64 63 63 63 63 64 64 64 64 63 63 64 64 65 65 64 64 66 65 60 56 74 75 74 74 74 71 67 66 61 63 56 55 52 57 58 58 60 61 63
65 65 64 64 64 64 64 64 63 63 63 63 64 64 64 63 63 63 63 64 64 64 64 64 65 65 61 64 74 73 75 72 72 71 66 68 66 60 58 54 60 60 52 55 58 59 59
64 64 64 64 64 64 64 63 63 62 62 63 63 63 63 62 62 63 63 63 63 63 64 65 65 60 59 74 71 75 74 72 73 73 70 70 68 63 58 60 58 53 50 43 55 58 60
64 64 64 64 64 64 64 63 63 62 62 63 63 63 62 62 62 63 63 63 64 65 65 66 60 57 59 74 71 75 74 71 71 71 69 76 67 58 58 49 44 46 40 43 49 59 58
64 64 63 63 63 63 64 63 63 62 62 62 62 62 62 61 62 62 62 63 65 65 64 67 67 57 66 66 71 73 72 72 67 66 65 61 56 50 49 44 36 41 41 45 45 53 56
64 63 63 63 63 63 63 63 63 62 62 62 62 62 61 61 61 61 59 61 57 59 59 56 59 61 66 71 72 70 73 69 66 60 50 55 47 43 48 51 52 49 45 44 49 55 52
64 64 63 63 63 63 63 63 62 62 62 62 62 61 61 61 60 60 60 57 56 58 50 62 63 64 69 69 63 68 72 60 58 51 54 49 44 54 56 56 52 49 45 44 49 54 52
64 64 64 63 63 63 63 62 62 62 62 62 62 61 61 61 60 61 60 60 64 63 47 59 66 66 67 68 63 64 69 61 55 52 52 44 51 59 56 52 50 48 45 44 45 50 51
64 64 64 64 63 63 63 62 62 62 62 61 61 60 60 60 60 58 58 63 62 62 45 56 62 67 68 66 60 71 70 63 57 52 52 49 56 55 52 51 52 43 53 51 49 44 37
64 64 64 63 63 63 62 62 62 62 61 60 60 60 60 60 54 57 62 61 61 57 35 60 62 73 67 63 64 66 70 63 53 54 51 48 50 50 49 52 54 49 55 50 49 45 39
64 64 64 63 63 62 62 62 61 61 61 61 60 60 59 58 55 59 61 60 58 47 38 56 63 60 59 61 63 65 64 65 61 55 51 51 58 55 53 56 56 57 50 46 44 41 31
64 64 64 63 63 62 62 62 62 62 62 61 60 59 58 62 58 60 59 55 45 39 56 52 54 57 54 54 59 59 55 51 46 40 40 46 50 55 56 50 54 52 41 30 26 29 29
64 64 63 63 62 62 62 62 62 62 61 60 58 59 59 63 60 60 55 51 39 49 48 57 56 54 52 56 54 55 50 46 52 47 39 35 35 48 55 50 46 45 43 32 22 28 30
64 63 63 63 62 62 62 62 62 61 61 59 57 54 56 61 62 58 52 41 42 47 54 52 52 47 47 53 51 51 47 47 48 48 40 37 38 52 55 55 51 44 38 42 33 35 30
63 63 63 62 62 62 62 62 62 61 60 57 49 51 55 63 60 54 48 45 48 56 56 53 43 48 42 46 47 45 45 51 51 52 50 44 35 48 53 55 52 45 46 37 37 29 22
63 63 63 62 62 61 61 62 62 61 60 57 50 53 60 62 58 51 44 45 53 59 57 51 47 46 46 45 46 43 46 51 53 52 51 44 40 42 48 46 44 43 41 43 39 38 31
64 63 63 62 61 61 61 61 62 61 58 55 49 49 60 60 51 45 46 51 56 55 57 54 52 51 47 48 45 45 46 49 54 52 47 46 40 34 41 51 52 49 44 44 35 34 38
64 64 63 62 61 60 60 61 61 59 57 49 48 49 59 59 46 45 49 54 56 54 53 52 51 52 52 47 42 46 48 54 53 52 46 47 39 31 37 43 47 43 47 48 43 39 34
64 64 63 63 61 60 60 60 60 59 57 51 48 46 51 51 48 49 46 49 50 56 54 54 52 52 49 46 49 45 46 52 53 52 58 52 40 37 31 38 41 40 45 47 42 33 34
64 64 63 63 62 60 60 60 60 59 57 51 46 47 51 44 47 48 50 50 48 48 52 53 48 49 46 41 43 44 45 47 50 54 49 45 37 39 42 45 45 43 43 46 41 40 35
64 64 64 63 62 61 60 60 59 58 56 48 45 45 47 46 50 49 49 49 49 50 51 48 46 48 47 43 45 42 44 42 44 47 43 43 37 38 38 45 44 43 46 45 45 44 42
63 63 64 63 62 61 60 59 58 57 56 46 48 49 50 46 46 46 46 50 52 53 52 53 49 45 44 48 50 49 49 48 49 43 41 39 37 35 31 41 42 39 43 44 43 43 42
57 60 63 63 63 61 60 59 58 57 59 52 50 51 47 44 46 49 52 53 51 51 50 53 50 46 51 52 52 50 45 46 46 45 46 39 37 35 30 36 30 43 48 49 46 45 45
56 57 61 63 63 61 60 60 59 57 58 53 52 51 47 43 48 50 51 50 51 49 48 50 52 53 52 49 42 40 41 43 44 44 41 43 39 32 28 29 39 44 47 46 43 42 47
56 57 58 62 62 61 60 59 59 58 57 53 50 51 48 44 45 54 49 49 44 42 44 48 51 50 49 43 39 33 32 39 39 41 43 42 41 36 31 28 28 42 47 50 48 37 48
56 57 57 57 62 61 60 59 59 58 57 56 50 54 49 43 49 53 48 47 48 43 41 42 46 46 46 37 35 31 35 43 37 37 36 37 35 31 30 26 36 46 49 50 35 39 48
56 57 57 56 61 61 60 59 59 58 58 56 51 51 49 42 45 51 54 49 46 45 42 45 44 43 38 35 33 34 33 39 37 40 39 37 31 30 31 28 31 50 47 43 46 45 49
57 56 57 56 55 60 60 59 59 59 58 58 47 53 54 49 48 53 54 55 55 54 47 45 44 42 42 37 35 34 36 36 37 33 43 37 42 37 38 38 49 51 50 50 49 50 49
MSLP
1022.53 1022.44 1022.33 1022.27 1021.95 1021.77 1021.56 1021.46 1021.34 1021.04 1020.83 1020.62 1020.09 1019.63 1019.29 1019.00 1018.62 1018.21 1017.87 1017.55 1017.10 1016.71 1016.33 1016.07 1015.74 1015.28 1015.04 1014.62 1013.67 1012.82 1012.85 1012.75 1012.60 1012.49 1012.74 1012.81 1013.00 1013.19 1013.32 1013.09 1012.71 1012.31 1011.80 1011.37 1010.77 1010.45 1010.07
1022.59 1022.49 1022.34 1022.17 1022.02 1021.88 1021.72 1021.58 1021.31 1020.99 1020.62 1020.26 1019.96 1019.63 1019.27 1018.84 1018.35 1017.82 1017.44 1017.09 1016.78 1016.41 1016.17 1016.02 1015.65 1015.37 1015.05 1014.04 1012.67 1012.66 1012.80 1012.73 1012.61 1012.62 1012.76 1012.90 1013.20 1013.16 1013.24 1013.13 1013.13 1012.38 1011.92 1011.34 1010.82 1010.39 1009.93
1022.64 1022.52 1022.43 1022.31 1022.16 1021.94 1021.75 1021.45 1021.21 1020.92 1020.59 1020.24 1019.85 1019.43 1019.00 1018.49 1017.95 1017.47 1017.11 1016.75 1016.45 1016.16 1016.14 1015.97 1015.77 1015.51 1014.81 1013.41 1012.51 1012.59 1012.67 1012.56 1012.45 1012.56 1012.76 1012.77 1012.92 1013.19 1013.21 1013.18 1012.73 1012.39 1012.15 1011.34 1010.59 1010.22 1009.87
1022.59 1022.54 1022.43 1022.24 1022.07 1021.93 1021.73 1021.51 1021.22 1020.90 1020.59 1020.22 1019.75 1019.24 1018.77 1018.29 1017.80 1017.32 1016.85 1016.29 1015.86 1015.80 1015.86 1015.81 1015.80 1015.57 1014.16 1012.64 1012.52 1012.46 1012.36 1012.35 1012.27 1012.40 1012.57 1012.55 1012.70 1013.11 1013.42 1013.11 1012.81 1012.80 1012.52 1012.24 1011.10 1010.62 1009.91
1022.44 1022.33 1022.22 1022.10 1022.04 1021.87 1021.63 1021.35 1021.14 1020.90 1020.59 1020.23 1019.80 1019.35 1018.82 1018.23 1017.61 1016.92 1016.28 1015.72 1015.26 1015.11 1015.45 1015.60 1015.71 1015.32 1013.80 1012.62 1012.56 1012.18 1012.14 1012.23 1012.23 1012.28 1012.36 1012.45 1012.67 1013.23 1013.39 1013.69 1013.76 1013.46 1013.27 1012.49 1011.56 1010.66 1010.41
1022.38 1022.26 1022.13 1022.09 1021.95 1021.68 1021.45 1021.33 1021.13 1020.87 1020.58 1020.22 1019.78 1019.26 1018.70 1018.08 1017.43 1016.62 1015.67 1015.07 1015.07 1015.14 1015.42 1015.33 1015.31 1015.24 1013.64 1013.02 1012.45 1012.09 1011.90 1012.01 1012.26 1012.39 1012.53 1012.86 1013.37 1013.75 1013.89 1014.10 1014.16 1013.68 1013.36 1012.58 1011.88 1011.18 1010.52
1022.27 1022.22 1022.18 1021.99 1021.81 1021.65 1021.50 1021.39 1021.17 1020.86 1020.54 1020.19 1019.66 1019.03 1018.46 1017.92 1017.33 1016.44 1015.57 1015.17 1015.88 1015.72 1015.72 1015.78 1015.46 1014.70 1013.66 1012.89 1012.26 1011.97 1011.75 1012.09 1012.38 1012.80 1013.18 1013.43 1014.08 1014.09 1013.68 1013.57 1013.47 1013.39 1013.20 1012.65 1011.94 1011.34 1010.73
1021.98 1021.98 1021.95 1021.85 1021.83 1021.75 1021.63 1021.44 1021.17 1020.80 1020.41 1020.04 1019.46 1018.85 1018.32 1017.63 1017.23 1016.54 1016.37 1017.23 1017.81 1018.04 1016.99 1015.34 1014.76 1014.30 1013.29 1012.95 1012.74 1011.86 1011.72 1012.32 1012.68 1013.14 1013.25 1013.72 1013.72 1013.27 1013.15 1013.16 1013.20 1013.14 1012.98 1012.40 1011.62 1011.16 1010.80
1021.48 1021.57 1021.62 1021.75 1021.78 1021.70 1021.54 1021.33 1021.07 1020.71 1020.36 1019.94 1019.39 1018.78 1018.02 1017.48 1017.21 1017.01 1017.35 1017.76 1017.54 1017.72 1017.70 1015.36 1014.00 1013.35 1012.86 1012.96 1012.71 1012.03 1012.04 1012.35 1012.87 1013.24 1013.40 1013.74 1013.32 1012.95 1012.93 1012.97 1012.86 1012.86 1012.65 1012.04 1011.64 1011.10 1010.84
1021.09 1021.15 1021.25 1021.38 1021.47 1021.47 1021.30 1021.10 1020.89 1020.59 1020.26 1019.84 1019.30 1018.79 1018.13 1017.34 1017.35 1017.82 1017.79 1017.68 1017.61 1017.60 1017.24 1015.16 1013.69 1012.71 1012.67 1012.78 1012.63 1011.66 1011.90 1012.52 1013.04 1013.49 1013.42 1013.47 1013.00 1012.93 1012.81 1012.79 1012.64 1012.36 1011.71 1011.53 1011.39 1011.44 1011.42
1020.64 1020.70 1020.82 1020.97 1021.03 1021.07 1020.99 1020.80 1020.61 1020.38 1020.07 1019.67 1019.29 1018.93 1018.48 1017.85 1018.29 1018.04 1017.89 1017.57 1017.43 1017.61 1016.88 1014.82 1013.31 1012.41 1012.63 1013.03 1012.73 1011.97 1012.19 1012.56 1013.32 1013.69 1014.16 1013.91 1013.15 1012.83 1012.70 1012.35 1012.20 1011.91 1011.41 1011.48 1011.76 1011.87 1012.37
1020.12 1020.30 1020.42 1020.50 1020.59 1020.64 1020.60 1020.46 1020.34 1020.17 1019.91 1019.52 1019.20 1019.03 1018.78 1018.43 1018.44 1017.85 1017.64 1017.48 1017.66 1017.36 1016.42 1014.73 1013.58 1013.38 1013.47 1013.18 1012.91 1012.76 1012.98 1013.01 1013.53 1013.90 1014.08 1013.98 1013.05 1012.78 1012.46 1011.98 1011.72 1011.45 1011.73 1012.13 1012.13 1012.70 1013.20
1019.56 1019.73 1019.91 1020.13 1020.30 1020.32 1020.26 1020.17 1020.02 1019.89 1019.74 1019.47 1019.06 1018.75 1018.78 1018.42 1018.05 1017.57 1017.52 1017.82 1017.76 1017.36 1016.37 1015.79 1014.90 1014.48 1014.43 1014.20 1013.84 1013.78 1014.32 1014.53 1015.20 1015.37 1015.39 1014.77 1013.55 1012.92 1012.54 1012.20 1011.45 1012.12 1013.06 1013.31 1013.32 1013.80 1013.97
1018.76 1019.11 1019.27 1019.47 1019.74 1019.87 1019.91 1019.93 1019.85 1019.71 1019.56 1019.35 1018.97 1018.40 1018.21 1017.79 1017.44 1017.49 1017.69 1017.83 1017.76 1017.54 1016.83 1016.15 1015.65 1015.10 1015.15 1015.05 1014.97 1014.81 1014.99 1015.54 1015.71 1016.11 1016.31 1016.16 1014.56 1013.37 1012.80 1012.75 1012.53 1012.91 1013.69 1015.32 1015.88 1015.41 1014.47
1017.99 1018.22 1018.54 1018.87 1019.08 1019.27 1019.45 1019.59 1019.66 1019.55 1019.45 1019.30 1018.79 1018.44 1018.18 1017.50 1017.36 1017.60 1017.85 1018.14 1018.14 1017.50 1017.06 1016.68 1016.15 1016.00 1016.11 1015.82 1015.84 1015.66 1015.94 1016.22 1016.37 1016.47 1016.89 1016.57 1015.24 1013.47 1013.02 1012.51 1012.68 1013.12 1014.42 1015.72 1016.17 1015.90 1015.25
1017.04 1017.44 1017.78 1018.07 1018.49 1018.79 1018.97 1019.16 1019.37 1019.37 1019.39 1019.45 1019.55 1019.10 1018.18 1017.23 1017.40 1017.82 1018.21 1018.25 1017.63 1017.01 1016.81 1016.72 1016.84 1016.75 1016.87 1016.77 1016.56 1016.38 1016.39 1016.33 1016.38 1016.31 1016.51 1016.92 1016.34 1014.29 1013.23 1012.60 1013.06 1013.41 1014.38 1015.34 1015.83 1015.85 1015.18
1016.02 1016.49 1016.88 1017.34 1017.70 1018.10 1018.51 1018.79 1019.00 1019.13 1019.32 1019.53 1019.59 1019.03 1017.67 1017.40 1017.62 1018.09 1018.60 1017.95 1017.17 1016.71 1016.70 1016.89 1017.03 1017.23 1017.24 1017.36 1017.11 1016.70 1016.45 1016.37 1016.28 1016.40 1016.43 1016.91 1017.25 1015.24 1014.29 1013.78 1013.91 1013.89 1013.99 1014.55 1015.27 1015.73 1015.56
1014.82 1015.35 1015.90 1016.35 1016.90 1017.43 1017.87 1018.26 1018.64 1018.86 1019.22 1019.56 1019.68 1019.19 1017.79 1017.58 1018.24 1018.59 1018.43 1017.52 1016.89 1016.67 1016.44 1016.72 1016.99 1017.20 1017.40 1017.51 1017.40 1017.11 1016.61 1016.36 1016.33 1016.39 1016.75 1016.98 1017.37 1016.96 1015.20 1013.86 1013.96 1013.37 1013.55 1013.91 1014.83 1015.04 1015.11
1013.90 1014.39 1014.89 1015.39 1015.90 1016.49 1017.18 1017.66 1018.06 1018.47 1018.98 1019.63 1019.77 1019.03 1018.01 1017.86 1018.38 1018.59 1017.99 1017.34 1016.90 1016.80 1016.62 1016.77 1017.03 1017.23 1017.30 1017.67 1017.82 1017.44 1017.07 1016.66 1016.58 1016.72 1016.70 1017.05 1017.69 1017.60 1015.64 1014.61 1014.25 1014.11 1013.62 1013.61 1014.02 1014.65 1014.72
1012.61 1013.42 1013.97 1014.55 1015.02 1015.42 1016.22 1016.96 1017.50 1018.01 1018.54 1019.36 1019.87 1019.44 1018.82 1018.62 1018.29 1018.14 1017.90 1017.47 1017.03 1016.64 1016.75 1016.94 1017.15 1017.28 1017.58 1017.91 1017.99 1017.86 1017.59 1017.04 1017.00 1016.95 1016.87 1017.18 1018.00 1018.36 1017.96 1016.48 1015.68 1014.90 1014.10 1013.54 1013.47 1014.23 1014.34
1011.47 1012.09 1012.78 1013.46 1014.31 1014.88 1015.00 1015.99 1016.87 1017.53 1018.23 1019.03 1019.68 1019.04 1018.12 1018.79 1018.46 1017.96 1017.57 1017.38 1017.15 1017.04 1017.00 1016.96 1017.32 1017.66 1018.12 1018.45 1018.49 1018.34 1018.19 1017.89 1017.49 1017.45 1017.52 1018.02 1018.44 1018.25 1017.52 1016.38 1015.63 1014.63 1014.07 1013.40 1013.31 1013.39 1013.81
1009.97 1010.72 1011.44 1012.32 1013.12 1014.02 1014.65 1015.15 1015.82 1017.00 1018.00 1018.87 1018.88 1018.75 1018.43 1018.07 1017.85 1017.79 1017.51 1017.32 1017.09 1017.02 1017.15 1017.31 1017.56 1017.86 1018.06 1018.42 1018.63 1018.85 1018.81 1018.88 1018.42 1018.17 1018.45 1018.90 1018.79 1018.45 1017.16 1015.75 1015.14 1014.12 1013.46 1013.09 1013.15 1013.32 1013.42
1009.25 1009.64 1010.22 1011.02 1011.87 1012.87 1013.61 1014.54 1015.21 1016.00 1016.75 1017.56 1017.78 1017.50 1017.17 1017.74 1017.85 1017.91 1017.31 1016.77 1016.81 1016.78 1017.08 1017.25 1017.53 1018.06 1018.32 1018.19 1018.21 1018.19 1018.31 1018.33 1018.33 1018.59 1019.18 1019.54 1019.34 1019.27 1017.98 1016.12 1014.92 1014.08 1013.28 1013.00 1013.16 1013.33 1013.52
1009.15 1009.05 1009.06 1009.77 1010.66 1011.64 1012.30 1013.51 1014.37 1015.18 1015.30 1015.90 1016.21 1016.65 1017.29 1017.41 1017.33 1016.97 1016.71 1016.61 1016.75 1016.95 1017.03 1017.21 1017.58 1017.97 1017.79 1017.86 1017.90 1017.47 1017.50 1017.36 1017.63 1017.84 1018.63 1019.23 1019.54 1019.49 1018.82 1016.91 1015.51 1013.76 1012.93 1012.83 1013.19 1013.34 1013.41
1008.86 1008.75 1008.41 1008.66 1009.39 1010.48 1011.39 1012.43 1013.30 1014.07 1014.81 1015.39 1015.46 1015.80 1016.57 1016.65 1016.37 1016.46 1016.49 1016.55 1016.73 1016.96 1017.36 1017.34 1017.41 1017.42 1017.69 1018.22 1018.63 1018.26 1017.32 1017.15 1017.14 1017.51 1018.26 1018.76 1019.46 1019.76 1019.47 1018.13 1015.95 1013.87 1013.03 1012.98 1013.18 1013.45 1013.37
1007.43 1007.64 1008.02 1007.95 1008.46 1009.40 1010.39 1011.48 1012.48 1013.30 1014.03 1015.11 1015.33 1015.29 1015.64 1016.40 1015.98 1015.49 1016.15 1016.34 1016.93 1017.24 1017.77 1017.57 1017.41 1017.59 1018.03 1019.09 1019.73 1019.62 1018.64 1017.70 1017.41 1017.63 1017.98 1018.93 1019.36 1019.89 1019.58 1018.52 1016.20 1013.80 1012.93 1012.76 1013.03 1013.36 1013.18
1006.85 1007.15 1007.25 1007.55 1007.35 1008.20 1009.38 1010.47 1011.57 1012.47 1013.52 1014.43 1014.98 1014.94 1015.35 1016.30 1015.48 1015.15 1015.52 1015.73 1016.44 1017.00 1017.63 1017.91 1017.90 1018.25 1018.57 1019.87 1020.55 1020.32 1019.21 1017.90 1017.64 1017.71 1018.28 1018.86 1019.44 1019.61 1019.36 1018.05 1015.53 1013.57 1012.98 1012.92 1013.51 1013.67 1013.07
1006.40 1006.50 1006.41 1007.02 1005.93 1007.06 1008.24 1009.45 1010.58 1011.65 1012.74 1013.75 1014.27 1014.50 1015.01 1015.84 1015.47 1014.77 1014.77 1015.19 1016.00 1016.54 1017.15 1017.79 1018.44 1018.81 1019.60 1020.40 1020.88 1020.28 1019.69 1018.54 1018.12 1017.47 1017.33 1017.70 1018.23 1018.62 1018.47 1017.34 1015.09 1013.07 1013.13 1013.25 1013.11 1013.05 1013.10
1005.54 1005.80 1005.80 1006.37 1006.30 1006.04 1007.12 1008.47 1009.67 1010.49 1012.11 1013.11 1014.21 1014.13 1014.51 1015.37 1015.38 1015.05 1014.64 1014.52 1014.52 1014.82 1016.03 1017.13 1017.77 1018.19 1018.66 1019.93 1020.58 1020.57 1020.06 1019.26 1018.60 1018.11 1016.84 1017.00 1016.47 1016.67 1016.47 1014.85 1013.48 1012.66 1012.38 1012.31 1012.46 1012.74 1013.06
Wind_Speed
5 5 6 6 7 8 9 9 9 10 10 11 12 13 14 15 16 16 16 15 16 17 17 16 14 12 3 2 3 3 5 6 5 5 5 6 6 4 3 5 7 4 3 7 6 8 6
4 5 6 7 7 8 9 9 10 11 12 13 13 13 14 15 16 18 18 17 17 17 16 13 12 9 1 3 2 6 6 4 2 2 4 4 2 4 3 4 1 5 8 8 5 8 5
3 4 5 5 6 8 9 10 11 11 11 12 14 15 16 17 19 19 19 18 17 16 14 11 8 3 2 5 1 4 6 3 2 2 2 2 1 2 2 5 3 7 6 7 7 5 5
1 2 4 6 7 8 9 9 10 11 12 14 15 16 17 18 19 20 20 19 17 14 10 8 4 1 3 3 2 5 2 4 1 4 3 4 2 2 2 5 6 5 3 4 7 5 5
1 2 3 5 6 6 8 9 10 11 12 13 15 16 17 18 19 20 20 20 16 6 5 4 1 1 3 3 4 4 4 3 3 2 4 4 1 1 5 2 5 4 5 6 6 4 4
2 2 2 3 4 5 7 8 9 10 11 13 14 15 17 19 20 20 22 14 2 5 2 2 3 3 3 5 5 4 3 2 2 4 5 2 4 3 3 2 4 6 7 7 7 4 4
3 2 3 2 4 6 7 8 9 10 11 13 14 15 17 18 19 21 12 4 8 5 8 1 4 3 5 7 3 3 4 0 1 2 1 2 2 5 9 6 5 6 5 9 9 8 7
7 5 4 3 4 5 6 7 9 10 11 13 15 17 17 19 19 17 3 7 2 4 7 4 6 6 6 2 4 5 2 1 3 4 4 6 3 8 7 8 6 7 7 11 8 5 8
9 8 6 5 4 5 5 6 8 10 12 13 15 17 20 20 15 4 6 4 1 4 0 7 5 3 4 3 4 7 7 1 2 4 7 3 5 6 3 5 7 5 8 7 12 5 5
12 11 10 9 7 7 6 6 8 9 11 12 13 16 20 23 5 4 3 4 4 4 4 3 2 3 1 1 5 5 4 3 3 4 6 5 3 4 4 5 4 9 6 12 14 7 6
14 13 12 11 9 8 7 7 8 10 11 12 13 14 15 10 1 3 4 4 2 3 5 2 2 1 1 2 5 5 4 4 2 5 5 8 4 4 3 5 3 11 12 9 11 13 4
17 16 14 12 11 10 8 7 8 10 11 12 13 12 13 2 1 3 4 3 3 5 3 5 2 6 7 2 3 5 6 5 1 5 2 7 5 2 4 8 8 13 7 13 4 1 3
17 16 15 13 12 10 9 8 8 9 11 12 14 14 8 1 2 3 2 3 6 6 4 6 4 6 4 4 6 6 3 7 4 7 9 7 7 6 2 8 5 5 6 5 6 4 4
20 18 16 14 13 11 10 8 8 9 10 12 15 16 1 3 2 3 3 5 7 2 3 3 4 8 3 7 5 8 3 3 6 4 2 4 11 2 4 4 6 4 3 2 3 5 5
22 20 19 17 15 12 11 9 8 8 9 11 13 4 3 3 2 2 5 6 4 2 2 4 8 4 6 6 4 8 6 2 1 2 1 5 8 7 5 5 1 3 4 3 1 3 4
23 21 20 18 16 14 12 10 9 7 6 7 3 4 3 1 3 4 6 3 3 0 2 1 1 3 3 5 6 6 3 3 3 1 2 2 7 4 9 5 4 1 7 1 2 6 5
24 23 21 20 17 15 13 11 9 6 3 2 2 3 3 3 4 5 3 4 3 1 0 0 1 3 3 2 3 3 2 1 2 5 3 1 2 9 5 3 5 3 3 1 4 1 3
26 25 23 21 19 16 15 13 11 7 2 4 1 1 2 3 4 1 1 3 2 2 2 2 1 4 3 4 4 3 2 3 7 2 4 1 2 6 8 9 7 4 3 3 4 6 1
26 25 24 23 21 18 16 15 13 10 9 3 2 2 3 4 2 1 4 2 4 2 1 1 1 2 2 2 2 2 4 3 8 6 2 1 1 6 12 7 6 4 7 3 3 3 3
27 25 24 23 22 21 18 17 14 12 12 4 3 0 3 3 0 5 3 2 1 2 2 3 3 2 2 2 3 4 4 3 8 5 5 3 2 6 6 9 3 8 14 10 3 3 2
28 27 26 24 22 21 22 20 17 15 14 5 2 5 4 3 4 4 5 2 1 2 3 4 1 4 3 2 4 4 2 7 4 5 3 4 3 5 8 15 10 13 12 5 4 3 3
28 27 26 26 24 22 20 20 21 18 13 3 6 5 2 2 2 7 6 6 7 3 4 3 3 1 4 5 6 6 2 3 6 4 3 5 4 5 7 3 4 4 3 3 3 3 3
27 27 26 26 25 25 22 21 22 24 13 4 3 1 5 2 3 5 6 6 7 7 3 4 3 2 3 6 6 9 10 8 9 4 3 3 2 4 6 6 8 2 3 1 2 1 2
15 15 27 27 26 26 26 24 25 27 19 3 4 4 4 5 5 7 7 7 8 7 6 5 4 5 5 2 6 7 6 11 10 11 8 4 2 2 5 7 1 5 1 4 6 1 1
15 19 23 27 26 26 26 26 28 29 27 3 3 4 4 3 4 5 6 5 5 4 4 4 5 6 4 5 4 7 5 1 1 5 9 7 3 1 1 3 6 3 3 4 3 3 2
14 16 18 28 26 26 26 27 27 28 29 5 2 2 4 6 6 5 6 6 5 4 3 3 3 3 6 3 2 2 3 2 2 2 4 5 2 3 1 0 4 4 2 1 3 5 4
19 18 20 22 28 25 27 28 28 28 26 10 3 4 4 4 4 6 5 7 6 4 4 2 3 2 3 3 1 4 4 3 2 4 5 4 2 6 3 4 8 6 2 2 2 8 4
21 21 19 21 32 28 27 28 28 26 26 14 3 5 5 3 5 4 5 6 4 3 6 4 4 2 3 2 3 4 3 3 3 2 6 7 7 5 3 2 7 5 3 5 6 2 4
23 25 21 19 14 27 28 28 28 27 26 20 3 3 3 3 3 1 2 1 5 9 7 2 6 5 5 4 2 1 2 2 2 4 3 3 6 4 9 7 5 5 6 3 6 5 4
Wind_Direction
37 24 23 18 14 13 9 5 359 357 350 340 340 337 330 323 318 317 319 321 318 321 326 331 334 340 351 36 264 188 217 271 311 350 18 2 38 9 350 294 328 218 281 323 302 296 259
24 28 28 20 16 19 12 7 7 1 356 348 340 333 327 323 321 320 322 320 319 318 321 326 334 331 19 49 222 178 213 272 269 23 355 43 353 275 248 286 264 294 298 291 299 292 273
24 25 27 26 21 17 14 12 8 0 352 346 342 339 334 331 328 323 319 314 310 306 311 317 329 320 63 216 197 202 219 235 223 169 309 248 228 45 305 301 258 267 300 321 276 286 273
24 34 26 26 22 18 14 8 5 0 355 350 346 342 336 330 324 319 316 310 299 294 294 290 317 300 236 284 313 289 218 284 302 198 205 233 213 251 222 290 324 324 17 2 298 346 280
329 10 24 25 21 16 11 9 5 360 354 348 345 340 334 328 323 320 315 310 308 285 199 265 301 312 313 333 303 283 192 264 296 273 247 224 115 268 345 338 338 344 266 278 294 338 277
275 342 0 4 17 23 18 7 2 357 352 347 341 335 333 332 329 324 320 319 87 113 135 204 253 15 316 295 284 285 241 198 283 329 357 63 47 5 334 77 281 284 293 270 276 293 284
245 266 288 326 1 10 4 357 355 349 348 343 339 338 336 332 335 328 341 29 18 353 40 158 283 258 268 295 285 247 224 167 308 56 257 220 71 251 250 241 256 276 277 271 288 273 275
219 224 256 304 333 341 340 343 345 344 346 342 339 338 335 335 337 326 13 72 137 192 322 285 245 256 257 212 302 286 121 268 35 299 324 8 274 262 288 304 322 305 305 297 285 263 289
216 220 237 247 268 286 311 328 332 338 341 340 340 339 339 336 324 22 81 82 347 123 133 300 238 226 249 159 272 272 151 157 253 306 297 234 256 314 4 325 316 292 268 271 279 282 268
217 220 226 234 248 266 284 304 317 326 330 331 338 343 344 333 58 328 57 323 359 117 70 317 287 286 143 195 279 240 193 128 351 295 322 272 273 300 319 303 292 305 249 280 284 296 279
219 221 225 231 238 252 267 289 307 315 320 326 334 341 349 14 266 51 282 319 350 68 65 298 271 237 351 262 280 347 24 46 328 278 48 277 285 313 299 263 294 262 299 277 290 284 349
220 223 225 226 228 236 251 273 294 306 313 319 325 334 350 6 27 245 312 334 59 50 29 346 24 349 355 314 273 14 31 24 16 331 340 263 264 251 245 289 268 282 314 330 345 76 261
219 221 222 225 230 236 245 265 285 302 311 316 320 319 319 286 258 307 345 48 42 82 340 334 322 344 325 299 346 20 71 34 51 360 344 328 295 292 267 312 319 21 1 318 6 31 302
215 219 219 218 224 230 240 255 278 297 310 320 319 317 266 231 272 5 60 53 67 15 338 352 313 316 74 16 352 338 14 35 24 36 304 14 326 331 345 247 276 41 93 36 321 335 297
215 215 215 218 218 222 230 242 264 289 312 336 324 331 321 269 223 73 65 55 188 254 263 310 323 30 339 352 31 13 10 37 41 358 34 346 281 302 267 282 45 333 23 124 191 234 313
213 214 214 214 216 219 220 226 242 270 308 16 7 344 279 240 93 59 72 194 170 151 291 28 324 66 334 324 17 21 343 292 329 304 192 305 298 258 305 2 38 297 154 312 65 350 349
212 212 212 214 212 210 215 217 224 242 286 34 29 21 268 76 65 45 127 222 163 188 179 77 269 314 312 331 300 300 287 354 298 305 66 65 134 287 343 18 325 329 333 42 123 303 340
211 211 210 210 209 207 208 206 211 211 158 61 78 17 297 66 44 61 169 212 179 199 105 294 199 230 232 328 313 292 267 94 338 317 336 281 160 288 259 281 262 304 304 105 85 302 134
215 213 212 208 205 201 201 199 196 187 156 130 166 249 340 84 177 246 284 287 210 213 181 146 288 108 51 277 316 249 325 218 31 17 321 303 347 330 343 1 6 3 319 330 114 56 313
209 213 212 212 206 195 193 193 188 179 162 107 107 280 322 42 251 151 176 226 190 231 229 194 236 308 27 314 201 282 291 301 338 316 113 98 162 177 215 245 287 309 312 305 123 88 279
210 207 207 208 210 205 188 186 183 174 164 106 133 231 196 205 261 182 155 201 201 263 218 188 305 106 122 290 313 257 300 321 315 0 64 75 248 213 241 260 274 258 265 319 48 293 119
211 207 204 205 201 200 195 186 177 164 140 96 147 159 20 193 157 150 176 208 193 200 174 233 177 257 158 197 207 272 239 204 243 349 50 357 285 351 291 243 319 251 341 43 21 6 105
224 212 208 203 199 195 192 187 176 161 151 164 211 288 119 216 172 137 212 196 192 151 226 180 142 138 252 248 220 228 217 217 234 225 88 264 208 16 275 321 319 20 319 15 92 346 264
315 274 210 205 200 195 187 185 178 175 188 143 193 123 116 218 174 195 183 180 173 193 183 189 150 154 228 320 286 273 243 243 227 232 168 209 149 145 271 335 123 248 56 112 121 342 22
262 283 243 205 200 194 189 188 184 183 191 160 182 133 142 208 175 204 200 177 172 184 210 189 226 202 138 46 353 330 338 302 181 188 189 180 119 276 105 281 290 261 208 188 200 276 246
257 266 300 215 204 197 188 188 188 188 190 178 234 134 125 124 241 150 185 180 168 163 343 248 46 134 80 85 55 274 271 293 305 65 108 114 96 132 98 128 231 242 203 101 97 286 225
257 255 260 310 202 194 188 186 189 189 189 175 228 176 105 144 245 149 177 171 143 117 148 275 165 112 66 98 173 220 260 239 241 185 174 139 165 194 226 251 284 241 180 116 120 238 192
246 248 243 267 199 188 186 185 186 189 184 178 208 177 131 149 274 191 169 139 113 140 147 202 60 359 63 138 159 244 200 266 324 226 182 173 157 203 154 198 271 187 94 178 215 219 185
240 255 229 230 313 194 185 185 186 181 182 176 172 169 127 141 224 270 256 274 186 172 137 192 171 164 178 122 185 316 282 302 182 256 314 244 192 200 182 213 236 226 206 187 166 166 182